www.pogodaiklimat.ru

Погода и климат >> Архив погоды >> Индонезия >> Путусиббау


ПОГОДА на Путусиббау

  • Прогноз погоды на Путусиббау
  • Монитор погоды на Путусиббау

АРХИВ ПОГОДЫ на Путусиббау

Время (UTC), дата Ветер
(напр.,м/с)
 
Видим.   Явления Облачность Т
(С)
Тd
(С)
f
(%)
Тe
(С)
Тes
(С)
Комфортность P
(гПа)
Po
(гПа)
Тmin
(С)
Tmax
(С)
R
(мм)
R24
(мм)
S
(см)
03 15.08 штиль 0 5000 м слаб. дождь 10/6 300 м
[Cu med, cong As op]
+23.4 +22.9 97 +33 +35 очень
душно
1017.0 1011.9 30
06 15.08 штиль 0 8000 м в посл. час дождь 10/6 330 м
[Cu med, cong As op]
+25.0 +24.7 98 +35 +37 очень
душно
1013.0 1007.9 1
09 15.08 штиль 0 8000 м 9/5 330 м
[Cu hum Ac trans Ci fib]
+26.6 +22.4 78 +35 +36 очень
душно
1011.8 1006.7
12 15.08 штиль 0 8000 м 8/4 330 м
[Cu hum As trans Ci fib]
+24.6 +23.2 92 +33 +33 очень
душно
1012.3 1007.2 +34.6
00 16.08 штиль 0 4000 м мгла 9/4 300 м
[Sc diur, vesp As op Ci fib]
+23.0 +22.2 95 +31 +33 очень
душно
1014.0 1008.9 +21.8 31
03 16.08 В 3 8000 м 8/4 400 м
[Cu hum As trans Ci fib]
+29.8 +25.5 78 +44 +51 опасность
перегрева
1013.7 1008.6
06 16.08 З 2 8000 м 8/4 450 м
[Cu hum As trans Ci fib]
+31.6 +25.1 69 +46 +53 опасность
перегрева
1011.0 1005.9
09 16.08 С 2 8000 м 4/1 450 м
[Cu hum As trans Ci fib]
+32.6 +24.6 63 +46 +48 опасность
перегрева
1009.2 1004.1
12 16.08 З 1 7000 м 6/4 360 м
[Cu hum As trans Ci fib]
+28.3 +25.1 83 +41 +41 опасность
перегрева
1010.6 1005.5 +33.0
00 17.08 В 2 3000 м дымка 9/4 300 м
[Sc Ac trans Ci sp]
+25.2 +24.0 93 +35 +36 очень
душно
1013.8 1008.7 +24.6
03 17.08 Ю 2 8000 м 8/4 400 м
[Sc As op Ci sp]
+30.1 +24.3 71 +42 +49 опасность
перегрева
1013.5 1008.5
06 17.08 СВ 2 8000 м 6/4 450 м
[Cu hum As trans Ci fib]
+34.0 +23.9 56 +46 +55 опасность
перегрева
1010.8 1005.7
09 17.08 ЮЗ 3 8000 м 6/4 420 м
[Cu med, cong As trans Ci fib]
+32.6 +23.5 59 +44 +45 опасность
перегрева
1009.1 1004.0
12 17.08 В 3 3000 м в посл. час дождь 8/5 400 м
[Cu med, cong Ac lent Ci fib]
+25.5 +22.2 82 +33 +33 очень
душно
1011.3 1006.2 +34.2 0.0
00 18.08 штиль 0 4000 м {дождь} 8/6 400 м
[Sc Ac lent Ci fib]
+25.5 +23.2 87 +34 +35 очень
душно
1014.7 1009.6 +23.3 0.0
03 18.08 штиль 0 8000 м 5/4 450 м
[Sc diur, vesp As trans Ci fib]
+30.5 +24.4 70 +43 +56 опасность
перегрева
1014.4 1009.3
06 18.08 С 3 8000 м 8/5 400 м
[Cu med, cong Ac lent Ci fib]
+33.3 +26.0 66 +49 +55 опасность
перегрева
1011.2 1006.1
09 18.08 З 4 10 км 9/4 360 м
[Sc diur, vesp As op Ci fib]
+33.0 +24.4 61 +46 +46 опасность
перегрева
1009.5 1004.4
12 18.08 штиль 0 1000 м слаб. дождь 10/5 300 м
[Sc diur, vesp Ac As Ci fib]
+26.2 +24.4 90 +37 +37 очень
душно
1012.1 1007.0 +34.0 0.0
00 19.08 штиль 0 8000 м 8/5 330 м
[Sc As op Ci fib]
+23.1 +22.1 94 +31 +33 очень
душно
1013.8 1008.7 +22.0 2
03 19.08 Ю 2 10 км 6/4 400 м
[Cu hum As trans Ci fib]
+29.0 +24.4 76 +41 +51 опасность
перегрева
1016.7 1008.6
06 19.08 ЮЗ 2 10 км 6/4 450 м
[Cu med, cong As trans Ci fib]
+32.6 +27.8 76 +53 +62 опасность
перегрева
1010.3 1005.2
09 19.08 ЮЗ 2 10 км 6/4 420 м
[Cu hum As trans Ci fib]
+32.8 +22.6 55 +42 +44 опасность
перегрева
1008.3 1003.2
12 19.08 штиль 0 7000 м 8/5 420 м
[Cu med, cong As op Ci fib]
+28.9 +23.3 72 +39 +39 очень
душно
1010.9 1005.8 +33.2
00 20.08 СЗ 4 3000 м дождь 10/6 300 м
[Frnb As op]
+22.8 +22.0 95 +31 +31 очень
душно
1014.7 1009.6 +22.0 2
03 20.08 штиль 0 4000 м слаб. дождь 10/6 300 м
[Frnb As op]
+21.2 +20.9 98 +27 +29 душно 1016.6 1011.5 33
06 20.08 В 2 8000 м в посл. час дождь 9/6 330 м
[Frnb As op Ci fib]
+24.3 +22.0 87 +31 +36 очень
душно
1013.7 1008.6 7
09 20.08 ЮВ 4 10 км 9/6 360 м
[Sc diur, vesp As op Ci fib]
+25.6 +22.1 81 +33 +34 очень
душно
1010.2 1005.1
12 20.08 штиль 0 6000 м 9/6 300 м
[Frnb Ac cuf Ci fib]
+24.1 +21.6 86 +31 +31 очень
душно
1011.3 1006.2 +26.4
00 21.08 ЮВ 2 1000 м туман 10/8 270 м
[Frnb As op]
+22.4 +21.9 97 +30 +30 очень
душно
1012.5 1007.5 +21.5 40
03 21.08 штиль 0 8000 м 6/4 400 м
[Cu hum As trans Ci fib]
+27.2 +27.7 100 +43 +56 опасность
перегрева
1011.8 1006.7
06 21.08 В 2 10 км 5/3 420 м
[Cu hum As trans Ci fib]
+31.6 +25.7 71 +47 +58 опасность
перегрева
1009.0 1003.9
09 21.08 штиль 0 10 км 4/3 450 м
[Cu hum As trans Ci fib]
+32.8 +23.5 58 +44 +46 опасность
перегрева
1008.0 1002.9
12 21.08 штиль 0 8000 м 6/4 400 м
[Cu hum As trans Ci fib]
+28.3 +24.5 80 +40 +40 очень
душно
1010.0 1004.9 +33.2
00 22.08 штиль 0 6000 м 8/4 300 м
[Sc diur, vesp As op Ci fib]
+25.2 +22.9 87 +33 +35 очень
душно
1014.1 1009.0 +20.6

 

Местоположение метеостанции Путусиббау (Индонезия): широта 0.84 долгота 112.94 высота над уровнем моря 32 м.

В архиве по умолчанию представлена погода на Путусиббау за последнюю неделю. Архивные данные за месяц целиком и за предыдущие месяцы, начиная с января 2011 года, Вы можете получить, выбрав интересующий диапазон дат из раскрывающегося списка и нажав кнопку "Ввод!".


*Определитесь, кто Вы:
робот инопланетянин человек

Внимание! Время в таблицах - всемирное. Для получения местного времени необходимо прибавить поправку, которая равна 7 ч.

Смотрите также архив погоды в соседних городах и на ближайших метеорологических станциях:

Погода в Синтанге (Индонезия) (176 км)
Погода в Нангапинохе (Индонезия) (185 км)
Погода в Сибу (Малайзия) (207 км)
Погода в Паоанкарая (Индонезия) (236 км)
Погода в Бинталу (Малайзия) (263 км)
Погода в Муаратевехе (Индонезия) (295 км)
Погода в Кучинге (Малайзия) (299 км)
Погода в Мири (Малайзия) (405 км)
Погода в Понтианаке (Индонезия) (409 км)
Погода в Пангкалан-Буне (Индонезия) (417 км)

Пояснения к столбцам:

Ветер - указаны скорость ветра в м/с - средняя за 10 мин, порывы в срок и между сроками (в фигурных скобках) и направление, откуда дует ветер: С - северный, СВ - северо-восточный, В - восточный, ЮВ - юго-восточный, Ю - южный, ЮЗ - юго-западный, З - западный, СЗ - северо-западный.
Видимость - горизонтальная дальность видимости в метрах или километрах. При видимости от 1 до 10 км при отсутствии осадков обычно наблюдается дымка, при ухудшении видимости до 1 км и менее - туман. В сухую погоду видимость может ухудшаться дымом, пылью или мглою.
Явления - указаны атмосферные явления, наблюдавшиеся в срок или в последний час перед сроком; фигурными скобками обозначены явления, наблюдавшиеся между сроками (за 1-3 часа до срока); квадратными скобками обозначены град или гололедные отложения с указанием их диаметра в мм.
Облачность - указаны через наклонную черту общая и нижняя облачность в баллах и высота нижней границы облаков в метрах; квадратными скобками обозначены формы облаков: Ci - перистые, Cs - перисто-слоистые, Cc - перисто-кучевые, Ac - высококучевые, As - высокослоистые, Sc - слоисто-кучевые, Ns - слоисто-дождевые, Cu - кучевые, Cb - кучево-дождевые. Подробнее классификацию облаков см. в Атласе облаков (PDF).
T - Температура воздуха - температура, измеренная на высоте 2 м над землей.
Td - Температура точки росы - температура, при понижении до которой содержащийся в воздухе водяной пар достигнет насыщения.
f - Относительная влажность воздуха - влажноcть воздуха, измеренная на высоте 2 м над землей.
Te - Эффективная температура - температура, которую ощущает одетый по сезону человек в тени. Характеристика душности погоды. При расчете учитывается влияние влажности воздуха и скорости ветра на теплоощущения человека.
Tes - Эффективная температура на солнце - температура, которую ощущает человек, с поправкой на солнечный нагрев. Характеристика знойности погоды. Зависит от высоты солнца над горизонтом, облачности и скорости ветра. Ночью, в пасмурную погоду, а также при ветре 12 м/с и более поправка равна нулю.
P - Атмосферное давление - приведенное к уровню моря атмосферное давление.
Po - Атмосферное давление - измеренное на уровне метеостанции атмосферное давление.
Tmin - Минимальная температура - минимум температуры воздуха на высоте 2 м над землей.
Tmax - Максимальная температура - максимум температуры воздуха на высоте 2 м над землей.
R - Количество осадков - Количество выпавших осадков за период времени, мм. При наведении курсора мыши на число - период времени, за который выпало указанное количество осадков.
R24 - Количество осадков - Количество выпавших осадков за 24 часа, мм.
S - Снежный покров - Высота снежного покрова, см. При наведении курсора мыши на число - состояние снежного покрова и степень покрытия местности в баллах.